COSMOS 2251 DEB, 33832

Orbit data source: Space-Track

COSMOS 2251 DEB, 33832 is space debris in LEO originally from a launch on Wed, 16 Jun 1993 UTC launched from the Plesetsk Missile And Space Complex (PKMTR). The debris from Iridium 33, an American commercial communications satellite, has been tracked extensively since its accidental collision with the defunct Russian satellite Cosmos 2251 in 2009. This event, occurring at high speed in low Earth orbit (LEO), generated thousands of pieces of space debris, significantly increasing the risk of further collisions. The Iridium 33 debris cloud has impacted space traffic management and orbital debris mitigation strategies, making it a subject of ongoing study in space situational awareness.

Loading next visibility...
Identifier
33832, 1993-036BZ
Orbit
LEO
Country
Flag of CISCIS
Related business
Manufacturer
Unknown
Mission
Spacecraft
Bus & Motor
Unknown
Mass
Unknown
Launch date (UTC)
1993-06-16 (33 years ago)
Launch vehicle
Unknown
Launch site
Plesetsk Missile And Space Complex (PKMTR)
Object type
Payload
Rocket body
Debris
Shape & HBR
Unknown shape, 0.1 m
Radar Cross Section
Small (<0.1 m²)

Expand to show TLE details & history
Last TLE update: 22 hours ago

TLE from 22 hours ago
0 COSMOS 2251 DEB
1 33832U 93036BZ  26106.07028031  .00002242  00000-0  44661-3 0  9990
2 33832  74.0550 332.3761 0021132 333.3890 178.9317 14.62519279902413
Epoch: 2026-04-16T01:41Z
TLE epoch observation values (Epoch: 2026-04-16T01:41:12.218Z)
Latitude
26.5679°
Longitude
-85.31751°
Altitude
702.927 km
Speed
7.499 km/s
True Right ascension
09h 36m 49s
True Declination
26° 25' 46"
Sunlit
Object was in daylight at epoch
Visualization orbit readout
Latitude
Unknown
Longitude
Unknown
Altitude
Unknown
Speed
Unknown
Apparent Right ascension
Unknown
Apparent Declination
Unknown
Sunlit
N/A
Visualization observer readout
Local Sidereal Time
06:09:48
Azimuth
Unknown
Elevation
Unknown
Doppler factor
Unknown
Orbital elements
Apogee altitude
697.565 km
Perigee altitude
667.723 km
Semi-major axis
7,060.781 km
Eccentricity
0.00211
Inclination
74.055°
RAAN
332.3761°
Arg. of periapsis
333.389°
True anomaly
178.9362°
Mean anomaly
178.9317°
Eccentric anomaly
178.93395°
Mean motion
3.65817 °/min
Orbital period
98.41 mins
BSTAR
0.00044661
Loading maneuver chart data...
Computing Atmospheric mass density...

Documentation

Showing up to 5 results
|